Location: ???? ??? ??
(31.2955°N, 31.6355°E)
Time: 03:44:16
(UTC+00:00)

Daily predictions for brighter satellites

Satellite Brightness Start Highest point End
(mag) Time Altitude Azimuth Time Altitude Azimuth Time Altitude Azimuth
Cosmos 1980 Rocket 4.4 00:23:49 19° NNE 00:23:49 19° NNE 00:25:23 10° NNE
SL-16 R/B 4.3 00:35:54 21° E 00:35:54 21° E 00:39:56 10° NE
BREEZE-M DEB (TANK) 4.2 00:57:54 63° NNW 00:57:54 63° NNW 01:14:41 10° NE
IDEFIX/ARIANE 42P 4.3 00:53:54 10° NNE 00:56:03 25° NNE 00:56:03 25° NNE
CZ-2C R/B 4.3 01:01:37 10° NE 01:06:00 28° E 01:08:05 21° SE
SL-4 R/B 4.1 01:10:15 29° ENE 01:10:15 29° ENE 01:12:39 10° NE
Cosmos 1238 Rocket 3.8 01:18:30 10° N 01:24:59 85° E 01:25:25 77° SSE
SJ 16-02 3.4 01:22:44 10° NNE 01:26:28 27° ENE 01:30:10 10° SE
H-2A R/B 3.4 01:23:58 10° SE 01:28:00 39° ENE 01:32:06 10° N
Cosmos 468 Rocket 4.1 01:29:05 70° ESE 01:29:13 70° ESE 01:34:29 10° NNE
PAYLOAD A 4.3 01:24:56 10° NNE 01:29:31 55° E 01:29:52 53° ESE
PSLV R/B 4.4 01:26:11 10° NNE 01:29:48 45° E 01:29:48 45° E
Cosmos 1339 Rocket 4.3 01:30:54 77° W 01:31:03 77° W 01:37:18 10° N
Landsat 5 4.1 01:36:36 10° SSE 01:41:02 61° ENE 01:45:28 10° N
USA 234 4.2 01:37:46 10° ESE 01:43:52 44° NE 01:50:00 10° NNW
Meteor 1-27 Rocket 4.3 01:42:11 10° S 01:48:00 62° E 01:53:51 10° NNE
ALOS 4.3 01:46:11 10° NE 01:50:06 26° E 01:53:59 10° SSE
ERS-2 3.6 01:50:00 10° SE 01:53:23 38° ENE 01:56:48 10° N
Cosmos 2360 Rocket 3.2 01:48:24 10° S 01:53:43 44° ESE 01:59:05 10° NE
Chandra Rocket (1) 4.1 01:46:28 31° W 01:54:17 60° SSW 01:59:58 10° SE
MSX 4.3 01:49:51 10° N 01:54:55 41° WNW 01:54:55 41° WNW
Timation 1 Rocket 4.3 01:52:19 10° NNW 01:58:12 58° WSW 02:04:03 10° S
CSL-04 DEB 4.4 01:55:45 10° SSE 02:00:00 83° W 02:04:21 10° NNW
Cosmos 1980 Rocket 4.1 02:05:36 14° NW 02:05:36 14° NW 02:07:17 10° NNW
Cosmos 1484 Rocket 4.3 02:02:04 10° NNE 02:05:49 38° E 02:09:33 10° SSE
Cosmos 1898 Rocket 4.5 02:01:24 10° N 02:06:29 48° ENE 02:11:35 10° SE
IRIDIUM 104 4.2 02:04:10 10° N 02:09:21 70° W 02:14:31 10° S
Cosmos 2322 Rocket 2.2 02:08:00 34° SW 02:10:23 63° WNW 02:16:02 10° NNE
Cosmos 1536 4.1 02:06:54 10° N 02:10:47 43° E 02:14:39 10° SSE
FENGYUN 3A 4.5 02:06:45 10° NNE 02:12:01 52° E 02:17:15 10° S
Cosmos 2208 Rocket 4.5 02:08:16 10° S 02:13:28 62° ESE 02:18:36 10° NNE
ATLAS CENTAUR Rocket 3.3 02:04:43 26° W 02:13:38 75° S 02:18:23 10° E
Meteor 1-31 Rocket 4.0 02:13:36 10° NNE 02:17:14 41° E 02:20:54 10° S
deb Chang Zheng 4 3.6 02:13:34 10° NNE 02:17:52 79° ESE 02:22:06 10° S
Cosmos 2263 Rocket 2.1 02:12:33 10° NNW 02:18:14 84° WSW 02:23:54 10° SSE
IRIDIUM 114 4.3 02:13:23 10° NNW 02:18:28 55° W 02:23:31 10° SSW
SL-16 R/B 2.6 02:17:49 32° WSW 02:19:33 40° WNW 02:24:52 10° N
Cosmos 2237 4.2 02:14:57 10° SSW 02:20:34 89° ESE 02:26:18 10° NNE
Cosmos 1707 Rocket 3.7 02:20:29 31° SW 02:22:11 49° W 02:26:23 10° N
USA 32 3.9 02:18:52 10° N 02:24:07 82° W 02:29:22 10° S
Yuri Rocket 4.4 02:27:30 19° SSW 02:30:12 34° SSE 02:35:14 10° E
Cosmos 1814 Rocket 3.9 02:27:16 10° SSW 02:32:26 86° WNW 02:37:40 10° NNE
Cosmos 1937 Rocket 4.0 02:27:23 10° N 02:32:28 60° ENE 02:37:31 10° SSE
ADEOS 3.5 02:28:59 10° N 02:34:10 69° WNW 02:39:20 10° SSW
Cosmos 841 Rocket 3.5 02:29:10 10° SSW 02:34:17 62° WNW 02:39:30 10° N
Cosmos 2227 4.3 02:30:51 10° NNW 02:36:17 51° WSW 02:41:41 10° S
Cosmos 1666 2.8 02:33:38 10° NNW 02:37:19 49° W 02:40:57 10° SSW
Cosmos 44 Rocket 3.5 02:37:49 19° SW 02:40:55 47° WNW 02:45:34 10° NNE
SAR-Lupe-4 3.8 02:38:58 10° SSE 02:42:32 74° ENE 02:46:07 10° N
Skynet4D Del rocket 4.1 02:39:27 20° WSW 02:43:05 49° S 02:49:02 10° ESE
CZ-2C R/B 3.5 02:39:45 10° NNW 02:44:03 28° WNW 02:47:28 14° WSW
Cosmos 2219 Rocket 3.6 02:39:05 10° S 02:44:19 41° ESE 02:49:36 10° NE
Cosmos 1733 Rocket 2.9 02:42:55 10° N 02:47:16 86° W 02:51:34 10° S
SL-4 R/B 4.0 02:45:52 14° WNW 02:48:09 20° NNW 02:51:39 10° NNE
COSMOS 2428 4.2 02:44:16 10° S 02:49:30 39° ESE 02:54:46 10° NE
Meteor 2-20 4.4 02:47:24 10° SSW 02:53:28 66° W 02:59:34 10° N
Cosmos 2016 Rocket 4.3 02:47:24 10° N 02:53:30 72° E 02:59:34 10° SSE
SAR-Lupe-1 3.9 02:51:09 10° S 02:54:41 76° WSW 02:58:16 10° NNW
Cosmos 1862 Rocket 3.9 02:52:08 10° SSW 02:56:19 43° W 03:00:30 10° N
Cosmos 2333 Rocket 2.8 02:53:40 10° S 02:59:20 65° ESE 03:05:03 10° NNE
Meteor 1-18 Rocket 4.4 02:56:59 10° S 03:02:31 80° E 03:08:05 10° N
H-2A R/B 3.7 03:01:59 10° WSW 03:04:04 13° W 03:06:11 10° WNW
SJ 16-02 2.6 03:01:42 10° NW 03:04:47 19° W 03:07:52 10° SW
SJ-12 3.9 03:01:01 10° N 03:05:08 75° WNW 03:09:15 10° SSW
Cosmos 2322 3.7 03:02:26 10° SSW 03:08:06 79° WNW 03:13:47 10° NNE
Meteor 1-19 Rocket 4.3 03:02:54 10° S 03:08:18 82° E 03:13:51 10° N
Cosmos 540 Rocket 4.4 03:06:28 10° SW 03:10:47 27° WNW 03:15:07 10° N
Cosmos 1725 Rocket 4.1 03:06:56 10° N 03:13:08 87° E 03:19:18 10° S
USA 281 4.0 03:07:47 10° NNE 03:14:15 59° ESE 03:20:41 10° S
Cosmos 1743 2.6 03:12:00 10° NNW 03:15:47 69° W 03:19:33 10° S
ADEOS Rocket 3.8 03:10:43 10° SSW 03:17:07 36° W 03:23:00 10° NNW
CZ-4B R/B 2.6 03:16:47 10° SW 03:19:04 19° W 03:21:23 10° NW
Cosmos 2100 Rocket 4.5 03:13:28 10° NNW 03:19:19 39° W 03:25:06 10° SSW
ATLAS 2AS CENTAUR R/B 3.3 03:13:30 10° NNW 03:20:43 63° ENE 03:27:18 10° SE
